Back to catalog

PSLV R/B

AliveHEO
NORAD 43287·ROCKET BODY·🇮🇳 India

Launched Apr 11, 2018 from Satish Dhawan Space Centre

Loading…

Next Passes (next 24 hours)

TLE

FreshSource: Space-Track

Epoch: Sep 13, 2026, 13:40 UTC

1 43287U 18035B   26256.56967450  .00028120  00000-0  11579-2 0  9992
2 43287  19.1225 346.1826 5587703   8.2276 358.0664  4.74989937130439

Track PSLV R/B in real time with AllMySat

Download on the App Store